RESCUE1 BGSF-BGSF

Flight info

Callsign RESCUE1
Flight time 0h 12m
Altitude 1500
Route VFR
Aircraft EC25/M-VGD/C

Departure

Time 2026-04-27 06:57
Airport Kangerlussuaq International Airport (BGSF)

Arrival

Time 2026-04-27 07:09
Airport Kangerlussuaq International Airport (BGSF)
Time Latitude Longitude Altitude Speed Heading
2026-04-27 06:44 67.01165 -50.69773 154 ft 0 kts 163°
2026-04-27 06:54 67.01157 -50.69770 159 ft 1 kts 153°
2026-04-27 06:54 67.01191 -50.69801 202 ft 8 kts 137°
2026-04-27 06:55 67.01178 -50.69858 290 ft 17 kts 127°
2026-04-27 06:55 67.01046 -50.70009 375 ft 22 kts 119°
2026-04-27 06:55 67.00891 -50.69456 305 ft 61 kts 74°
2026-04-27 06:55 67.00855 -50.68265 382 ft 76 kts 66°
2026-04-27 06:56 67.00991 -50.66864 413 ft 86 kts 51°
2026-04-27 06:56 67.01266 -50.65433 497 ft 96 kts 51°
2026-04-27 06:56 67.01479 -50.63740 557 ft 102 kts 79°
2026-04-27 06:56 67.01431 -50.61963 745 ft 99 kts 94°
2026-04-27 06:57 67.01248 -50.60277 832 ft 99 kts 105°
2026-04-27 06:57 67.01027 -50.58695 949 ft 89 kts 94°
2026-04-27 06:57 67.00863 -50.57255 950 ft 81 kts 85°
2026-04-27 06:57 67.00773 -50.55873 1047 ft 81 kts 79°
2026-04-27 06:58 67.00622 -50.54336 1135 ft 95 kts 95°
2026-04-27 06:58 67.00340 -50.50727 1191 ft 116 kts 81°
2026-04-27 06:58 67.00308 -50.49337 1177 ft 120 kts 83°
2026-04-27 06:59 67.00279 -50.47187 1096 ft 122 kts 78°
2026-04-27 06:59 67.00267 -50.44994 1020 ft 123 kts 78°
2026-04-27 06:59 67.00262 -50.42890 1067 ft 113 kts 77°
2026-04-27 06:59 67.00260 -50.40958 1153 ft 105 kts 75°
2026-04-27 07:00 67.00378 -50.39196 1236 ft 99 kts 59°
2026-04-27 07:00 67.00654 -50.37550 1225 ft 103 kts 50°
2026-04-27 07:00 67.01015 -50.35945 1257 ft 106 kts 43°
2026-04-27 07:00 67.01262 -50.34047 1249 ft 118 kts 76°
2026-04-27 07:01 67.01576 -50.32294 1386 ft 105 kts 39°
2026-04-27 07:01 67.02194 -50.31476 1441 ft 100 kts
2026-04-27 07:01 67.02873 -50.31701 1432 ft 100 kts 330°
2026-04-27 07:01 67.03427 -50.32798 1403 ft 104 kts 305°
2026-04-27 07:02 67.03750 -50.34453 1414 ft 104 kts 283°
2026-04-27 07:02 67.03717 -50.36272 1471 ft 106 kts 251°
2026-04-27 07:02 67.03274 -50.37730 1554 ft 104 kts 213°
2026-04-27 07:02 67.02572 -50.38133 1510 ft 107 kts 172°
2026-04-27 07:03 67.01870 -50.37403 1461 ft 113 kts 139°
2026-04-27 07:03 67.01307 -50.35941 1341 ft 119 kts 118°
2026-04-27 07:03 67.00925 -50.34018 1221 ft 124 kts 101°
2026-04-27 07:03 67.00733 -50.31838 1105 ft 128 kts 88°
2026-04-27 07:04 67.00690 -50.29540 1013 ft 128 kts 82°
2026-04-27 07:04 67.00688 -50.27345 1050 ft 120 kts 80°
2026-04-27 07:04 67.00682 -50.25272 1146 ft 114 kts 79°
2026-04-27 07:04 67.00765 -50.23282 1209 ft 112 kts 67°
2026-04-27 07:05 67.00992 -50.21374 1214 ft 112 kts 57°
2026-04-27 07:05 67.01303 -50.19588 1275 ft 107 kts 51°
2026-04-27 07:05 67.01652 -50.17968 1378 ft 102 kts 47°
2026-04-27 07:05 67.02043 -50.16503 1474 ft 96 kts 37°
2026-04-27 07:06 67.02566 -50.15889 1684 ft 81 kts 349°
2026-04-27 07:06 67.03058 -50.16545 1714 ft 84 kts 305°
2026-04-27 07:06 67.03387 -50.17773 1852 ft 82 kts 295°
2026-04-27 07:06 67.03557 -50.19277 1915 ft 97 kts 275°
2026-04-27 07:07 67.03568 -50.21097 1844 ft 107 kts 273°
2026-04-27 07:07 67.03752 -50.22919 1965 ft 99 kts 287°
2026-04-27 07:07 67.03730 -50.24634 1918 ft 102 kts 251°
2026-04-27 07:07 67.03420 -50.26326 1475 ft 110 kts 243°
2026-04-27 07:08 67.03014 -50.28101 1173 ft 120 kts 242°
2026-04-27 07:08 67.02643 -50.30102 854 ft 122 kts 251°
2026-04-27 07:08 67.02407 -50.31933 768 ft 94 kts 253°
2026-04-27 07:08 67.02305 -50.33311 723 ft 67 kts 265°
2026-04-27 07:09 67.02175 -50.34273 658 ft 51 kts 245°
2026-04-27 07:09 67.01911 -50.34665 540 ft 42 kts 198°
2026-04-27 07:09 67.01698 -50.34698 466 ft 20 kts 210°
2026-04-27 07:09 67.01621 -50.34751 494 ft 7 kts 211°
2026-04-27 07:10 67.01602 -50.34776 433 ft 3 kts 197°
2026-04-27 07:10 67.01597 -50.34783 434 ft 0 kts 191°
2026-04-27 07:12 67.01543 -50.34825 494 ft 19 kts 178°
2026-04-27 07:12 67.01439 -50.35204 517 ft 33 kts 227°
2026-04-27 07:13 67.01431 -50.35829 686 ft 37 kts 241°
2026-04-27 07:13 67.01561 -50.36375 840 ft 38 kts 263°
2026-04-27 07:13 67.01781 -50.36676 1008 ft 34 kts 281°
2026-04-27 07:13 67.01821 -50.37624 1021 ft 73 kts 259°
2026-04-27 07:14 67.01624 -50.38941 1068 ft 84 kts 237°
2026-04-27 07:14 67.01287 -50.40224 1151 ft 90 kts 235°
2026-04-27 07:14 67.00948 -50.41627 1184 ft 94 kts 240°
2026-04-27 07:14 67.00694 -50.43182 1166 ft 95 kts 255°
2026-04-27 07:15 67.00571 -50.44819 1190 ft 93 kts 267°
2026-04-27 07:15 67.00575 -50.46426 1304 ft 88 kts 275°
2026-04-27 07:15 67.00655 -50.47966 1417 ft 89 kts 274°
2026-04-27 07:15 67.00684 -50.49609 1460 ft 98 kts 269°
2026-04-27 07:16 67.00824 -50.51402 1375 ft 108 kts 286°
2026-04-27 07:16 67.01137 -50.53115 1407 ft 101 kts 295°
2026-04-27 07:16 67.01416 -50.54794 1407 ft 108 kts 290°
2026-04-27 07:16 67.01660 -50.56682 1284 ft 108 kts 289°
2026-04-27 07:17 67.01866 -50.58377 1410 ft 97 kts 287°
2026-04-27 07:17 67.02064 -50.60084 1199 ft 105 kts 287°
2026-04-27 07:17 67.02257 -50.61954 911 ft 112 kts 281°
2026-04-27 07:17 67.02364 -50.63972 614 ft 116 kts 273°
2026-04-27 07:18 67.02306 -50.65881 585 ft 102 kts 258°
2026-04-27 07:18 67.02049 -50.67466 444 ft 90 kts 243°
2026-04-27 07:18 67.01775 -50.68585 403 ft 54 kts 239°
2026-04-27 07:18 67.01672 -50.69039 279 ft 14 kts 191°
2026-04-27 07:19 67.01515 -50.69107 223 ft 30 kts 176°
2026-04-27 07:19 67.01352 -50.69348 203 ft 22 kts 208°
2026-04-27 07:19 67.01290 -50.69467 153 ft 0 kts 205°
2026-04-27 07:19 67.01287 -50.69471 154 ft 2 kts 205°
2026-04-27 07:20 67.01263 -50.69516 154 ft 6 kts 218°
2026-04-27 07:20 67.01233 -50.69624 154 ft 9 kts 238°
2026-04-27 07:20 67.01191 -50.69800 155 ft 12 kts 234°
2026-04-27 07:20 67.01138 -50.69761 154 ft 8 kts 107°
2026-04-27 07:21 67.01142 -50.69711 154 ft 0 kts 61°